Location: Unspecified
(42.3650°N, 71.1030°W)
Time: 16:51:21
(UTC+00:00)

S-56A Canister/Altair - Pass Details

Date: 30 June 2024
Orbit: 638 x 2487 km, 38.9° (Epoch: 20 July)

Event Time Altitude Azimuth Distance (km) Brightness Sun altitude
Rises 01:23:01 0° 262° (W) 3,772 11.7 -9.2°
Reaches altitude 10° 01:25:18 10° 260° (W) 3,010 11.1 -9.5°
Maximum altitude 01:32:50 73° 178° (S) 1,560 8.9 -10.5°
Drops below altitude 10° 01:44:27 10° 97° (E) 4,492 11.0 -12.0°
Sets 01:48:36 0° 96° (E) 5,725 11.5 -12.5°
